Torna al catalogo

STARLINK-11625

AttivoComunicazioniVLEO
NORAD 63109·PAYLOAD·🇺🇸 United States

Lanciato Feb 27, 2025 da Cape Canaveral Space Force Station

Loading…

Prossimi Passaggi (prossime 24 ore)

TLE

AggiornatoSource: CelesTrak SupGP

Epoca: Sep 15, 2026, 03:47 UTC

1 63109C 25039F   26258.15812500  .00039781  00000+0  30897-3 0  2588
2 63109  43.0007 175.0045 0001639 265.6704  20.0445 15.70819479    13

Traccia STARLINK-11625 in tempo reale con AllMySat

Download on the App Store